Fort Payne, AL

9:26 AM CDT on August 19, 2017 (GMT -0500)
Fort Payne

Weather History for K4A9 - February, 2013

Change the Weather History Date:

Friday, February 22, 2013

  Actual Average (KRMG) Record (KRMG)
Temperature  
Mean Temperature 44 °F -  
Max Temperature 46 °F 57 °F 75 °F (2003)
Min Temperature 42 °F 35 °F 25 °F (1999)
Degree Days  
Heating Degree Days 21    
Moisture  
Dew Point 41 °F    
Average Humidity 87    
Maximum Humidity 93    
Minimum Humidity 81    
Precipitation  
Precipitation 0.18 in - - ()
Sea Level Pressure  
Sea Level Pressure 30.03 in    
Wind  
Wind Speed 5 mph (East)    
Max Wind Speed 10 mph    
Max Gust Speed 20 mph    
Visibility 8 miles    
Events Rain    
Averages and records for this station are not official NWS values.
T = Trace of Precipitation, MM = Missing Value Source: NWS Daily Summary

Daily Weather History Graph

Daily Weather History Graph

Search for Another Location

Airport or City:

Trip Planner

Search our weather history database for the weather conditions in past years. The results will help you decide how hot, cold, wet, or windy it might be!

Date:

Astronomy

Feb. 22, 2013 Rise Set
Actual Time 6:20 AM CST 5:33 PM CST
Civil Twilight 5:54 AM CST 5:58 PM CST
Nautical Twilight 5:25 AM CST 6:27 PM CST
Astronomical Twilight 4:56 AM CST 6:56 PM CST
Moon 2:48 PM CST (2/22) 3:59 AM CST (2/22)
Length of Visible Light 12h 03m
Length of Day
11h 12m
Waxing Gibbous, 90% of the Moon is Illuminated
Feb 22
Waxing Gibbous
Feb 25
Full
Mar 4
Last Quarter
Mar 11
New
Mar 19
First Quarter

Hourly Weather History & Observations

Time (CST) Temp. Windchill Dew Point Humidity Pressure Visibility Wind Dir Wind Speed Gust Speed Precip Events Conditions
12:15 AM 44.6 °F 40.2 °F 41.0 °F 87% 29.98 in 5.0 mi ENE 8.1 mph - 0.07 in Rain Rain
12:35 AM 46.4 °F 42.9 °F 41.0 °F 81% 29.96 in 10.0 mi East 6.9 mph 17.3 mph 0.08 in Rain Light Rain
12:55 AM 44.6 °F 40.7 °F 41.0 °F 87% 29.97 in 10.0 mi East 6.9 mph 19.6 mph 0.08 in Rain Light Rain
1:15 AM 44.6 °F 39.7 °F 41.0 °F 87% 29.99 in 10.0 mi East 9.2 mph 18.4 mph N/A Rain Light Rain
1:35 AM 44.6 °F 40.2 °F 41.0 °F 87% 29.98 in 10.0 mi ENE 8.1 mph - N/A   Light Drizzle
2:15 AM 44.6 °F 40.2 °F 41.0 °F 87% 29.99 in 10.0 mi NE 8.1 mph - N/A   Drizzle
2:35 AM 44.6 °F 40.2 °F 41.0 °F 87% 30.00 in 10.0 mi East 8.1 mph - N/A   Overcast
2:55 AM 44.6 °F - 41.0 °F 87% 29.99 in 10.0 mi Calm Calm - N/A   Overcast
3:15 AM 44.6 °F 40.2 °F 41.0 °F 87% 29.98 in 10.0 mi East 8.1 mph 19.6 mph N/A   Overcast
3:35 AM 44.6 °F 41.4 °F 41.0 °F 87% 29.98 in 10.0 mi East 5.8 mph - N/A   Overcast
3:55 AM 44.6 °F - 41.0 °F 87% 29.98 in 10.0 mi Calm Calm - N/A   Overcast
4:15 AM 44.6 °F 41.4 °F 41.0 °F 87% 29.99 in 10.0 mi East 5.8 mph - N/A   Overcast
4:35 AM 44.6 °F 40.7 °F 41.0 °F 87% 30.00 in 10.0 mi NNE 6.9 mph - N/A   Overcast
4:55 AM 44.6 °F 39.2 °F 41.0 °F 87% 30.01 in 7.0 mi East 10.4 mph 17.3 mph N/A   Overcast
5:15 AM 44.6 °F 40.7 °F 41.0 °F 87% 30.01 in 7.0 mi ESE 6.9 mph - N/A   Light Drizzle
5:35 AM 44.6 °F 43.1 °F 41.0 °F 87% 30.01 in 10.0 mi ENE 3.5 mph - N/A   Overcast
5:55 AM 44.6 °F - 41.0 °F 87% 30.02 in 10.0 mi Calm Calm - N/A   Overcast
6:15 AM 44.6 °F 40.7 °F 41.0 °F 87% 30.02 in 10.0 mi East 6.9 mph 17.3 mph N/A   Overcast
6:35 AM 44.6 °F 41.4 °F 41.0 °F 87% 30.03 in 10.0 mi NE 5.8 mph - N/A   Overcast
6:55 AM 44.6 °F - 41.0 °F 87% 30.06 in 10.0 mi Calm Calm - N/A   Overcast
7:15 AM 44.6 °F 42.2 °F 41.0 °F 87% 30.07 in 10.0 mi East 4.6 mph - N/A   Overcast
7:35 AM 44.6 °F 43.1 °F 41.0 °F 87% 30.07 in 5.0 mi ESE 3.5 mph - N/A   Overcast
7:55 AM 44.6 °F 41.4 °F 41.0 °F 87% 30.07 in 10.0 mi NNE 5.8 mph - N/A   Overcast
8:15 AM 44.6 °F 43.1 °F 39.2 °F 81% 30.06 in 10.0 mi East 3.5 mph - N/A   Overcast
8:35 AM 44.6 °F - 39.2 °F 81% 30.05 in 10.0 mi Calm Calm - N/A   Overcast
8:55 AM 44.6 °F 40.7 °F 39.2 °F 81% 30.07 in 10.0 mi East 6.9 mph - N/A   Overcast
9:15 AM 44.6 °F - 39.2 °F 81% 30.08 in 10.0 mi Calm Calm - N/A   Overcast
9:35 AM 44.6 °F 41.4 °F 39.2 °F 81% 30.08 in 10.0 mi ESE 5.8 mph - N/A   Overcast
9:55 AM 44.6 °F 42.2 °F 39.2 °F 81% 30.09 in 10.0 mi SE 4.6 mph - N/A   Overcast
10:35 AM 44.6 °F 40.7 °F 39.2 °F 81% 30.09 in 10.0 mi ESE 6.9 mph - N/A   Overcast
10:55 AM 44.6 °F 40.7 °F 39.2 °F 81% 30.10 in 10.0 mi SE 6.9 mph - N/A   Overcast
11:15 AM 44.6 °F 39.2 °F 41.0 °F 87% 30.09 in 10.0 mi ESE 10.4 mph 16.1 mph N/A   Overcast
11:35 AM 44.6 °F 39.7 °F 41.0 °F 87% 30.08 in 10.0 mi SE 9.2 mph - N/A   Overcast
11:55 AM 44.6 °F 42.2 °F 41.0 °F 87% 30.08 in 10.0 mi ESE 4.6 mph - N/A   Overcast
12:15 PM 44.6 °F - 39.2 °F 81% 30.08 in 10.0 mi Calm Calm - N/A   Overcast
12:35 PM 44.6 °F 41.4 °F 41.0 °F 87% 30.08 in 7.0 mi SE 5.8 mph - N/A   Overcast
12:55 PM 44.6 °F 41.4 °F 39.2 °F 81% 30.07 in 10.0 mi SE 5.8 mph - N/A   Overcast
1:15 PM 44.6 °F - 41.0 °F 87% 30.07 in 5.0 mi Calm Calm - N/A   Overcast
1:35 PM 44.6 °F 42.2 °F 41.0 °F 87% 30.06 in 7.0 mi SE 4.6 mph - N/A   Overcast
1:55 PM 44.6 °F 41.4 °F 41.0 °F 87% 30.04 in 5.0 mi ESE 5.8 mph - N/A   Overcast
2:15 PM 44.6 °F 42.2 °F 41.0 °F 87% 30.04 in 4.0 mi ESE 4.6 mph - N/A   Overcast
2:35 PM 44.6 °F - 41.0 °F 87% 30.03 in 2.5 mi Calm Calm - N/A   Overcast
2:55 PM 44.6 °F - 41.0 °F 87% 30.02 in 5.0 mi Calm Calm - N/A   Overcast
3:15 PM 44.6 °F - 41.0 °F 87% 30.02 in 7.0 mi Calm Calm - N/A   Overcast
3:35 PM 44.6 °F 42.2 °F 41.0 °F 87% 30.02 in 7.0 mi East 4.6 mph - N/A   Overcast
3:55 PM 44.6 °F - 41.0 °F 87% 30.02 in 5.0 mi Calm Calm - N/A   Overcast
4:15 PM 44.6 °F - 41.0 °F 87% 30.02 in 3.0 mi Calm Calm - N/A   Overcast
4:35 PM 44.6 °F - 41.0 °F 87% 30.04 in 4.0 mi Calm Calm - N/A   Overcast
4:55 PM 44.6 °F 42.2 °F 41.0 °F 87% 30.05 in 7.0 mi ESE 4.6 mph - N/A   Overcast
5:15 PM 42.8 °F 41.1 °F 41.0 °F 93% 30.04 in 7.0 mi ESE 3.5 mph - N/A   Overcast
5:35 PM 44.6 °F - 41.0 °F 87% 30.05 in 7.0 mi Calm Calm - N/A   Overcast
5:55 PM 42.8 °F - 41.0 °F 93% 30.05 in 5.0 mi Calm Calm - N/A   Overcast
6:15 PM 42.8 °F 41.1 °F 41.0 °F 93% 30.05 in 5.0 mi East 3.5 mph - N/A   Overcast
6:35 PM 42.8 °F 40.1 °F 41.0 °F 93% 30.01 in 5.0 mi East 4.6 mph - N/A   Overcast
6:55 PM 42.8 °F 39.3 °F 41.0 °F 93% 30.00 in 10.0 mi ENE 5.8 mph - N/A   Overcast
7:15 PM 42.8 °F 41.1 °F 39.2 °F 87% 30.01 in 10.0 mi ENE 3.5 mph - N/A   Overcast
7:35 PM 44.6 °F - 39.2 °F 81% 30.02 in 10.0 mi Calm Calm - N/A   Overcast
7:55 PM 44.6 °F - 39.2 °F 81% 30.05 in 10.0 mi Calm Calm - N/A   Overcast
8:15 PM 44.6 °F 42.2 °F 39.2 °F 81% 30.05 in 10.0 mi SSE 4.6 mph - N/A   Overcast
8:35 PM 44.6 °F - 39.2 °F 81% 30.07 in 10.0 mi Calm Calm - N/A   Drizzle
8:55 PM 42.8 °F 41.1 °F 41.0 °F 93% 30.03 in 7.0 mi NE 3.5 mph - 0.02 in Rain Light Rain
9:15 PM 44.6 °F - 41.0 °F 87% 30.06 in 10.0 mi Calm Calm - 0.01 in Rain Light Rain
9:35 PM 44.6 °F 42.2 °F 39.2 °F 81% 30.06 in 10.0 mi ESE 4.6 mph - 0.01 in   Overcast
9:55 PM 42.8 °F 40.1 °F 41.0 °F 93% 30.03 in 10.0 mi East 4.6 mph - 0.02 in Rain Light Rain
10:15 PM 42.8 °F - 41.0 °F 93% 30.02 in 10.0 mi Calm Calm - N/A Rain Light Rain
10:35 PM 42.8 °F 41.1 °F 41.0 °F 93% 30.00 in 10.0 mi ENE 3.5 mph - N/A   Overcast
10:55 PM 42.8 °F - 41.0 °F 93% 30.04 in 10.0 mi Calm Calm - N/A   Overcast
11:15 PM 42.8 °F 40.1 °F 41.0 °F 93% 30.00 in 10.0 mi ENE 4.6 mph - N/A Rain Light Rain
11:35 PM 42.8 °F - 41.0 °F 93% 30.02 in 10.0 mi Calm Calm - 0.01 in Rain Rain
11:55 PM 42.8 °F - 41.0 °F 93% 29.99 in 4.0 mi Calm Calm - 0.06 in Rain Rain